Zurück zum Katalog

THORAD AGENA D DEB

AktivLEO
NORAD 5794·DEBRIS·🇺🇸 United States

Gestartet Sep 30, 1969 von Vandenberg Space Force Base

Loading…

Nächste Überflüge (nächste 24 Stunden)

TLE

AktuellSource: Space-Track

Epoche: Sep 13, 2026, 14:30 UTC

1  5794U 69082JW  26256.60438573  .00001779  00000-0  35187-3 0  9998
2  5794  69.9990  16.4951 0023088  46.5059 313.7996 14.63895622405334

Verfolge THORAD AGENA D DEB in Echtzeit mit AllMySat

Download on the App Store